sat.trackr.live / text

‹ back to catalog

STARLINK-34993

NORAD 65389 · 2025-191L

PAYLOAD ACTIVE UNKNOWN

§ Identity

Operator
Country
US
Launch date
2025-08-30
Launch site
AFWTR
Launch vehicle
Mass (kg)
RCS (m²)

Purposes: comms

External: N2YO · Heavens-Above · Gunter

§ Orbital elements

Epoch: 2026-09-20T14:14:34.247616Z

Period
93.91 min
Inclination
97.2840°
Eccentricity
0.0002760
Mean motion
15.33400476 rev/d
Perigee alt
463.8 km
Apogee alt
467.6 km
Semi-major
6,843.8 km
B*
-1.9615e-4
RAAN
129.6261°
Arg perigee
95.8237°
Mean anomaly
264.3320°
Rev number
5,965

§ Raw data

STARLINK-349931 65389U 25191L   26263.59345194 -.00006394  00000+0 -19615-3 0  99962 65389  97.2840 129.6261 0002760  95.8237 264.3320 15.33400476 59657

JSON: /api/v1/satellites/65389 · /tle

For live sub-satellite position, see the globe view (requires WebGL).

§ Visibility from observer

Set your observer location to see the next 7 days of passes ≥ 10°. The values pass through the URL so the page stays shareable.

No JS? Fill the form by hand. The geolocation button needs JavaScript.